[[{"header":{"parameterUnit":"m.s-1","parameterCategory":1,"la1":30.2991,"la2":30.254,"lo1":-89.0895,"lo2":-89.0444,"dy":0.0017,"dx":0.0017,"nx":28,"ny":28,"refTime":"2025-08-28T09:00:00:Z","depth":0,"parameterNumber":2,"parameterNumberName":"U-component_of_WINDS"},"data":[0,0,0,0,0,0,0,0,0,0,0,0,0,0,0,0,0,0,0,0,0,0,0,0,0,0,0,0,0,0,0,0,0,0,0,0,0,0,0,0,0,0,0,0,0,0,0,0,0,0,0,0,0,0,0,0,0,0,-0.1237,-0.1237,0,-0.1212,-0.1212,-0.1212,-0.1197,-0.1197,-0.1197,-0.1197,-0.1171,-0.1171,-0.117,0,0,0,0,0,0,0,0,0,0,0,0,0,-0.1273,-0.1273,-0.1237,-0.1237,-0.1236,-0.1212,-0.1212,-0.1211,-0.1197,-0.1197,-0.1197,-0.1197,-0.1171,-0.1171,-0.117,0,0,0,0,0,0,0,0,0,0,0,0,0,-0.1254,-0.1273,-0.1237,-0.1226,-0.1225,-0.1212,-0.1212,-0.1211,-0.1197,-0.1197,-0.1197,-0.1197,-0.1172,-0.1171,-0.117,-0.1166,0,0,-0.1167,-0.1167,0,0,0,0,0,0,0,0,-0.1255,-0.1253,-0.1228,-0.1227,-0.1226,-0.1207,-0.1215,-0.1196,-0.1197,-0.1208,-0.1197,-0.1197,-0.1183,-0.1182,-0.1177,-0.1165,-0.1164,-0.1167,-0.1166,-0.1166,-0.1166,0,0,0,0,0,0,0,-0.1256,-0.1254,-0.1227,-0.1228,-0.1226,-0.1223,-0.122,-0.1212,-0.1196,-0.1207,-0.1205,-0.1203,-0.1183,-0.1178,-0.1176,-0.1163,-0.1167,-0.1166,-0.1166,-0.1165,-0.1148,-0.1148,0,0,0,0,0,0,-0.1259,-0.1255,-0.1228,-0.1226,-0.124,-0.1222,-0.1219,-0.1213,-0.1196,-0.1194,-0.1203,-0.1202,-0.118,-0.1177,-0.1175,-0.1171,-0.1166,-0.1165,-0.1165,-0.1148,-0.1148,-0.1148,0,0,0,0,0,0,-0.126,-0.1257,-0.1229,-0.124,-0.1236,-0.1222,-0.1215,-0.1213,-0.1208,-0.1193,-0.1191,-0.1201,-0.1179,-0.1177,-0.1169,-0.1169,-0.1165,-0.1164,-0.1148,-0.1148,-0.1148,-0.116,0,0,0,0,0,0,-0.1261,-0.1257,-0.1255,-0.124,-0.1236,-0.1222,-0.1215,-0.1213,-0.1207,-0.1205,-0.1191,-0.1188,-0.1179,-0.117,-0.1168,-0.1168,-0.1163,-0.1148,-0.1148,-0.1148,-0.116,-0.1161,-0.1162,0,0,0,0,0,-0.1263,-0.126,-0.1255,-0.1252,-0.1233,-0.1222,-0.122,-0.1209,-0.1207,-0.1205,-0.1196,-0.1189,-0.117,-0.117,-0.1167,-0.1167,-0.1148,-0.1148,-0.1148,-0.1159,-0.1161,-0.1162,0,0,0,0,0,0,-0.1275,-0.1257,-0.1253,-0.1245,-0.1235,-0.122,-0.1217,-0.1211,-0.1202,-0.1201,-0.1189,-0.1186,-0.1179,-0.1172,-0.1172,-0.1163,-0.1158,-0.1158,-0.1168,-0.1169,-0.117,-0.1172,-0.1162,0,0,0,0,0,-0.1277,-0.1269,-0.1255,-0.1249,-0.1245,-0.1232,-0.1227,-0.122,-0.1209,-0.1205,-0.1195,-0.1186,-0.1178,-0.1173,-0.1165,-0.1159,-0.1156,-0.1157,-0.1158,-0.1159,-0.1159,-0.1157,-0.1157,-0.1149,-0.1149,-0.1149,0,0,-0.128,-0.127,-0.1266,-0.1251,-0.1243,-0.1236,-0.1229,-0.1221,-0.1216,-0.1204,-0.1196,-0.1189,-0.1178,-0.1171,-0.1168,-0.1165,-0.1161,-0.116,-0.116,-0.116,-0.1157,-0.1158,-0.1159,-0.1149,-0.1149,-0.1149,0,0,-0.1284,-0.1275,-0.1269,-0.1262,-0.125,-0.1241,-0.124,-0.1226,-0.1221,-0.1213,-0.1204,-0.1198,-0.1184,-0.1177,-0.1171,-0.1173,-0.1167,-0.1171,-0.1176,-0.1174,-0.1174,-0.1175,-0.1176,-0.1177,-0.1171,-0.1171,-0.1171,0,-0.129,-0.1278,-0.1268,-0.1261,-0.1255,-0.1245,-0.124,-0.1233,-0.1219,-0.1215,-0.1212,-0.1196,-0.1187,-0.1179,-0.118,-0.1175,-0.1174,-0.1172,-0.1175,-0.1176,-0.1176,-0.1177,-0.1178,-0.1171,-0.1171,-0.1171,-0.1171,0,-0.1287,-0.128,-0.1277,-0.1264,-0.1258,-0.1252,-0.1241,-0.1236,-0.123,-0.1222,-0.1215,-0.1205,-0.1194,-0.1192,-0.1186,-0.1183,-0.1182,-0.1178,-0.1173,-0.1178,-0.1179,-0.1179,-0.1172,-0.1172,-0.1172,-0.1172,0,0,-0.1296,-0.1278,-0.1277,-0.1272,-0.1259,-0.1253,-0.1247,-0.1238,-0.1234,-0.1225,-0.1221,-0.121,-0.1206,-0.1199,-0.1192,-0.119,-0.1193,-0.1186,-0.1185,-0.1188,-0.1191,-0.1195,-0.1196,-0.1189,-0.1189,-0.1189,-0.1193,0,-0.1298,-0.1287,-0.1277,-0.127,-0.1264,-0.1254,-0.125,-0.1241,-0.1234,-0.1228,-0.122,-0.1213,-0.1208,-0.1204,-0.1202,-0.1194,-0.1194,-0.1193,-0.1185,-0.1185,-0.1189,-0.1196,-0.12,-0.1204,-0.1193,-0.1193,-0.1193,0,-0.1297,-0.1289,-0.1282,-0.127,-0.1267,-0.1263,-0.1254,-0.1248,-0.1239,-0.1234,-0.1228,-0.1221,-0.1215,-0.1211,-0.1203,-0.1203,-0.1199,-0.1195,-0.1195,-0.1194,-0.1189,-0.1196,-0.1205,-0.1205,-0.1193,-0.1193,-0.1193,0,-0.1306,-0.1293,-0.1287,-0.1283,-0.1269,-0.1266,-0.1261,-0.1251,-0.1246,-0.1239,-0.1236,-0.1227,-0.1223,-0.1217,-0.1208,-0.1206,-0.1202,-0.1197,-0.1198,-0.1198,-0.1197,-0.1198,-0.1206,-0.1195,-0.1195,-0.1195,-0.1195,0,-0.1308,-0.1304,-0.1291,-0.1287,-0.1283,-0.1272,-0.1268,-0.1262,-0.1254,-0.1249,-0.124,-0.1236,-0.1224,-0.1219,-0.1212,-0.1207,-0.1205,-0.1201,-0.12,-0.1202,-0.1203,-0.12,-0.1199,-0.1195,-0.1195,-0.1195,-0.1195,0,-0.1317,-0.1307,-0.13,-0.1288,-0.1285,-0.1283,-0.1272,-0.1269,-0.1262,-0.1256,-0.1254,-0.1243,-0.1237,-0.1227,-0.1217,-0.1213,-0.1209,-0.1206,-0.1213,-0.1212,-0.1214,-0.1214,-0.1221,-0.1222,-0.1209,-0.1209,-0.121,0,-0.1319,-0.1316,-0.1304,-0.13,-0.1295,-0.1289,-0.1284,-0.1275,-0.127,-0.126,-0.1258,-0.1251,-0.1245,-0.1235,-0.1226,-0.1219,-0.1216,-0.1219,-0.1214,-0.1218,-0.1216,-0.1217,-0.1217,-0.122,-0.122,-0.122,-0.122,0,-0.1324,-0.132,-0.1314,-0.1307,-0.1302,-0.1295,-0.1288,-0.1286,-0.1275,-0.127,-0.1264,-0.1259,-0.125,-0.1243,-0.1235,-0.1229,-0.1223,-0.1222,-0.1222,-0.1224,-0.1229,-0.1227,-0.1216,-0.1221,-0.1221,-0.1221,-0.1221,-0.1221,-0.133,-0.1327,-0.1319,-0.1312,-0.1306,-0.1301,-0.1297,-0.129,-0.1284,-0.1276,-0.1271,-0.1265,-0.1257,-0.1245,-0.124,-0.1236,-0.1233,-0.1233,-0.1233,-0.1233,-0.1234,-0.1229,-0.1234,-0.1234,-0.1234,-0.1234,-0.1234,0,-0.1335,-0.133,-0.1324,-0.1315,-0.1311,-0.1306,-0.1298,-0.1295,-0.129,-0.1283,-0.1277,-0.127,-0.1264,-0.1255,-0.1248,-0.1247,-0.1244,-0.1245,-0.1245,-0.1244,-0.1237,-0.1238,-0.1248,-0.1248,-0.1248,-0.1248,-0.1248,-0.1248,-0.1338,-0.1333,-0.1328,-0.1321,-0.1315,-0.1309,-0.1306,-0.1301,-0.1295,-0.1288,-0.1283,-0.1278,-0.127,-0.1263,-0.1258,-0.1255,-0.1253,-0.1256,-0.1253,-0.1246,-0.1245,-0.1243,-0.1244,-0.1255,-0.1255,-0.1261,-0.1261,-0.1261]},{"header":{"parameterUnit":"m.s-1","parameterCategory":1,"la1":30.2991,"la2":30.254,"lo1":-89.0895,"lo2":-89.0444,"dy":0.0017,"dx":0.0017,"nx":28,"ny":28,"refTime":"2025-08-28T09:00:00:Z","depth":0,"parameterNumber":3,"parameterNumberName":"V-component_of_WINDS"},"data":[0,0,0,0,0,0,0,0,0,0,0,0,0,0,0,0,0,0,0,0,0,0,0,0,0,0,0,0,0,0,0,0,0,0,0,0,0,0,0,0,0,0,0,0,0,0,0,0,0,0,0,0,0,0,0,0,0,0,5.6125,5.6124,0,5.6068,5.6067,5.6067,5.5952,5.5949,5.5947,5.5945,5.5887,5.5888,5.5888,0,0,0,0,0,0,0,0,0,0,0,0,0,5.6134,5.6134,5.6125,5.6124,5.6123,5.6068,5.6067,5.6066,5.5952,5.5949,5.5947,5.5944,5.5887,5.5887,5.5888,0,0,0,0,0,0,0,0,0,0,0,0,0,5.6109,5.6134,5.6125,5.606,5.6053,5.6068,5.6067,5.6066,5.5953,5.5949,5.5946,5.5943,5.5887,5.5887,5.5888,5.5962,0,0,5.5891,5.5891,0,0,0,0,0,0,0,0,5.611,5.6108,5.607,5.6064,5.6057,5.6013,5.6049,5.6031,5.5954,5.5991,5.5945,5.5941,5.5932,5.5929,5.5926,5.5959,5.5957,5.5891,5.5892,5.5892,5.5892,0,0,0,0,0,0,0,5.6112,5.611,5.6102,5.607,5.6062,5.6033,5.6026,5.6045,5.5981,5.5987,5.5979,5.5974,5.5928,5.5925,5.5923,5.5956,5.5891,5.5892,5.5892,5.5893,5.6044,5.6047,0,0,0,0,0,0,5.6123,5.6113,5.6104,5.61,5.6076,5.6036,5.6027,5.6031,5.5981,5.597,5.5977,5.5969,5.5925,5.5922,5.5921,5.6001,5.5892,5.5893,5.5893,5.604,5.6045,5.6048,0,0,0,0,0,0,5.6124,5.6124,5.6106,5.6104,5.61,5.6039,5.6044,5.6032,5.6029,5.5973,5.5961,5.5986,5.5922,5.592,5.5952,5.5998,5.5893,5.5894,5.6036,5.6042,5.6047,5.6164,0,0,0,0,0,0,5.6125,5.6125,5.6152,5.6106,5.61,5.6139,5.6047,5.6033,5.603,5.6019,5.5978,5.5968,5.592,5.5951,5.5953,5.5997,5.5895,5.6032,5.6039,5.6045,5.6156,5.6173,5.6187,0,0,0,0,0,5.6126,5.6189,5.6154,5.6154,5.6134,5.6142,5.6139,5.6082,5.6035,5.6061,5.6025,5.5969,5.5993,5.5956,5.5956,5.6001,5.6029,5.6037,5.6044,5.6149,5.617,5.6187,0,0,0,0,0,0,5.6243,5.6181,5.6143,5.6193,5.6173,5.6123,5.6155,5.6106,5.61,5.609,5.6019,5.6011,5.6052,5.603,5.5989,5.6069,5.6002,5.601,5.6081,5.61,5.6116,5.6119,5.5895,0,0,0,0,0,5.6275,5.6287,5.6232,5.6281,5.6274,5.6216,5.6218,5.6175,5.6153,5.6144,5.611,5.609,5.6092,5.6095,5.6095,5.6153,5.6141,5.6184,5.62,5.6213,5.6221,5.6247,5.6264,5.6074,5.6074,5.6074,0,0,5.634,5.6308,5.632,5.6304,5.6284,5.6297,5.621,5.6228,5.6237,5.6147,5.6174,5.6149,5.6121,5.6166,5.6184,5.6149,5.627,5.6223,5.6234,5.6234,5.6256,5.6275,5.6291,5.608,5.6079,5.6078,0,0,5.6466,5.6444,5.6481,5.6462,5.6433,5.6394,5.6403,5.6359,5.6339,5.6365,5.6297,5.6306,5.6313,5.6295,5.6287,5.6405,5.6352,5.6407,5.6488,5.6514,5.6529,5.6542,5.6581,5.6596,5.6415,5.6415,5.6415,0,5.6551,5.6568,5.6506,5.6528,5.6522,5.6441,5.6477,5.6462,5.6434,5.6432,5.6393,5.6398,5.6374,5.6412,5.644,5.6438,5.6444,5.641,5.6532,5.6544,5.6555,5.6591,5.6607,5.6422,5.6421,5.642,5.642,0,5.6672,5.6685,5.6719,5.6693,5.6691,5.672,5.6662,5.6668,5.6626,5.6591,5.6617,5.6586,5.6576,5.6583,5.6542,5.6614,5.6593,5.6545,5.6475,5.6581,5.6614,5.6627,5.6431,5.6429,5.6427,5.6425,0,0,5.6869,5.6808,5.6821,5.6807,5.6768,5.6777,5.6802,5.6792,5.6796,5.678,5.6798,5.6805,5.6758,5.675,5.6706,5.673,5.6821,5.6678,5.6676,5.6703,5.6895,5.693,5.6947,5.6787,5.6789,5.6791,5.6896,0,5.6984,5.7022,5.6967,5.7017,5.7027,5.695,5.6971,5.6949,5.6917,5.692,5.6885,5.6889,5.683,5.6823,5.6843,5.6806,5.6858,5.6798,5.68,5.6801,5.6807,5.6965,5.7002,5.7103,5.6909,5.6911,5.6913,0,5.7122,5.7111,5.7163,5.7118,5.712,5.7141,5.7125,5.713,5.7103,5.7078,5.7068,5.7016,5.7035,5.6971,5.6995,5.6956,5.6953,5.6935,5.6938,5.6934,5.6862,5.6963,5.7134,5.7149,5.6933,5.6931,5.693,0,5.7257,5.7256,5.7285,5.7276,5.7226,5.7242,5.7222,5.7191,5.7188,5.7175,5.7172,5.7162,5.7156,5.7149,5.7096,5.7054,5.7126,5.7057,5.7104,5.7105,5.7121,5.712,5.7292,5.7125,5.7124,5.7124,5.7124,0,5.7389,5.7423,5.7345,5.7363,5.7398,5.7334,5.737,5.7342,5.7315,5.7326,5.7259,5.727,5.72,5.7203,5.7162,5.7187,5.7186,5.7164,5.7152,5.7169,5.7171,5.7165,5.7155,5.7128,5.7127,5.7126,5.7126,0,5.7545,5.7494,5.7521,5.7471,5.7459,5.7487,5.7444,5.7458,5.7421,5.7435,5.7435,5.7377,5.7377,5.7323,5.7313,5.7285,5.7327,5.7303,5.7336,5.7327,5.7376,5.7371,5.7547,5.7566,5.739,5.7391,5.7393,0,5.7631,5.7655,5.7607,5.7609,5.7592,5.7597,5.7593,5.7531,5.7529,5.7499,5.7516,5.7511,5.7503,5.7506,5.7463,5.7454,5.7428,5.749,5.7426,5.7441,5.7425,5.7423,5.7424,5.7503,5.7505,5.7507,5.7509,0,5.7789,5.7762,5.7759,5.7747,5.7744,5.7731,5.7715,5.772,5.7652,5.7653,5.7652,5.7646,5.7634,5.7629,5.7611,5.7589,5.7537,5.753,5.7539,5.7555,5.7572,5.756,5.737,5.7525,5.7524,5.7523,5.7522,5.7521,5.791,5.7927,5.7895,5.7893,5.7874,5.786,5.7869,5.7834,5.7832,5.7817,5.7781,5.7785,5.7755,5.7726,5.7709,5.771,5.7678,5.7694,5.7697,5.7701,5.7709,5.7574,5.7707,5.7707,5.7706,5.7706,5.7705,0,5.8062,5.8037,5.8037,5.8014,5.8013,5.7965,5.7943,5.7944,5.7949,5.7926,5.7919,5.7916,5.791,5.7866,5.7855,5.7864,5.784,5.7863,5.786,5.7856,5.7739,5.7731,5.7883,5.7883,5.7883,5.7883,5.7883,5.7883,5.814,5.8165,5.8135,5.8148,5.8123,5.8127,5.8118,5.8104,5.8085,5.8085,5.8079,5.8051,5.8018,5.8004,5.7995,5.7982,5.798,5.8011,5.799,5.7881,5.7864,5.7848,5.7839,5.8012,5.8012,5.8105,5.8106,5.8107]}]]